Погода в Сарге

Россия / Свердловская область     57°11′51″N   58°56′26″E
темп.,
°C
ветер,
м/с
пор.,
м/с
влажн.,
%
обл.,
%
осадки,
мм/ч
давл.,
гПа
погр.,
м
2 июля, сб
сб223:00+12св0075100 0.0 101510
02:00+11ссз0179100 0.0 101510
05:00+10ссв0084100 0.0 101510
08:00+15з236899 0.0 1014274
11:00+19сз334758 0.0 10131563
14:00+20сз234595 0.0 10121778
17:00+18зсз2563100 0.0 1012186
20:00+16з2675100 0.0 1012206
3 июля, вс
вс323:00+15зсз2275100 0.0 101253
02:00+14зсз1174100 0.0 101214
05:00+13зсз1174100 0.0 101113
08:00+15зсз127498 0.0 1011119
11:00+20зсз344664 0.0 10091939
14:00+18сз455688 0.0 1009749
17:00+17с3565100 0.2 1009728
20:00+13св379168 0.6 1009383
4 июля, пн
пн423:00+12всв3109321 0.6 1010574
02:00+9св3109934 0.0 1010405
05:00+9св4109599 0.0 1010601
08:00+12св5107212 0.0 1011903
11:00+15св585298 0.1 10101862
14:00+15ссв575673 0.5 10101616
17:00+13св577390 1.1 1011968
20:00+12св47725 0.2 10121032
5 июля, вт
вт523:00+7ссв38865 0.2 1014254
02:00+4с24965 0.0 101463
05:00+4с279583 0.0 1015138
08:00+10ссв366098 0.0 1015441
11:00+14св365083 0.0 10151459
14:00+17ссв353977 0.0 10142062
17:00+18ссв3439100 0.0 10141942
20:00+15с0064100 0.0 101411
6 июля, ср
ср623:00+11зюз1176100 0.0 101510
02:00+10з238768 0.0 101552
05:00+11зсз2981100 0.0 1015238
08:00+15сз366675 0.0 1015304
11:00+20ссз4652100 0.0 1014808
14:00+20сз3559100 0.0 1015750
17:00+23ссз255299 0.0 10141590
20:00+18сз018528 0.9 101414